Location: Oberkirch
(48.5323°N, 8.0787°E)
Time: 01:04:36
(UTC+00:00)

CUTE 1.7 + AOD 2 - Pass Details

Date: 22 March 2026
Orbit: 535 x 545 km, 97.8° (Epoch: 14 April)

Event Time Altitude Azimuth Distance (km) Brightness Sun altitude
Rises 03:20:54 0° 22° (NNE) 2,723 ? -20.9°
Reaches altitude 10° 03:23:12 10° 32° (NNE) 1,825 ? -20.6°
Maximum altitude 03:26:46 32° 97° (E) 961 ? -20.0°
Drops below altitude 10° 03:30:17 10° 161° (SSE) 1,812 ? -19.5°
Enters shadow 03:31:59 - 169° (S) 2,466 ? -19.3°
